sat.trackr.live / text

‹ back to catalog

STARLINK-35653

NORAD 66122 · 2025-237J

PAYLOAD ACTIVE UNKNOWN

§ Identity

Operator
Country
US
Launch date
2025-10-22
Launch site
AFWTR
Launch vehicle
Mass (kg)
RCS (m²)

Purposes: comms

External: N2YO · Heavens-Above · Gunter

§ Orbital elements

Epoch: 2026-09-19T11:16:25.828896Z

Period
93.85 min
Inclination
53.1579°
Eccentricity
0.0001711
Mean motion
15.34393112 rev/d
Perigee alt
461.6 km
Apogee alt
463.9 km
Semi-major
6,840.9 km
B*
6.3080e-4
RAAN
218.5048°
Arg perigee
102.3090°
Mean anomaly
257.8104°
Rev number
5,229

§ Raw data

STARLINK-356531 66122U 25237J   26262.46974339  .00020992  00000+0  63080-3 0  99902 66122  53.1579 218.5048 0001711 102.3090 257.8104 15.34393112 52299

JSON: /api/v1/satellites/66122 · /tle

For live sub-satellite position, see the globe view (requires WebGL).

§ Visibility from observer

Set your observer location to see the next 7 days of passes ≥ 10°. The values pass through the URL so the page stays shareable.

No JS? Fill the form by hand. The geolocation button needs JavaScript.